Вернуться в каталог

COSMOS 917 DEB

АктивенHEO
NORAD 26964·DEBRIS·🇷🇺 Russia

Запущен Jun 16, 1977 с Plesetsk Cosmodrome

Loading…

Ближайшие Пролёты (ближайшие 24 часа)

TLE

СвежийSource: Space-Track

Эпоха: Sep 14, 2026, 11:38 UTC

1 26964U 77047E   26257.48536115 -.00000935  00000-0  00000-0 0  9995
2 26964  61.3203 277.4194 7271656  40.1687 355.4232  2.02645065579182

Отслеживайте COSMOS 917 DEB в реальном времени с AllMySat

Download on the App Store